ANA831 RKSI-RJBE

Flight info

Callsign ANA831
Flight time 1h 22m
Altitude 37000
Route EGOBA Y697 LANAT Y597 MIHOU Y39 OYE V28 OLIVE
Aircraft A321/M-SDE3FGHIRWY/LB1

Departure

Time 2026-04-25 18:13
Airport Incheon International Airport (RKSI)

Arrival

Time 2026-04-25 19:35
Airport Kobe Airport (RJBE)
Time Latitude Longitude Altitude Speed Heading
2026-04-25 17:39 37.46487 126.43103 28 ft 0 kts 81°
2026-04-25 17:58 37.46486 126.43091 28 ft 2 kts 81°
2026-04-25 17:59 37.46484 126.43072 28 ft 2 kts 81°
2026-04-25 17:59 37.46481 126.43053 28 ft 2 kts 81°
2026-04-25 17:59 37.46479 126.43034 28 ft 2 kts 81°
2026-04-25 17:59 37.46476 126.43016 28 ft 2 kts 81°
2026-04-25 18:00 37.46475 126.43004 28 ft 2 kts 81°
2026-04-25 18:00 37.46476 126.42979 28 ft 2 kts 115°
2026-04-25 18:00 37.46484 126.42963 28 ft 2 kts 139°
2026-04-25 18:00 37.46497 126.42953 28 ft 2 kts 145°
2026-04-25 18:01 37.46509 126.42941 28 ft 2 kts 142°
2026-04-25 18:01 37.46518 126.42932 28 ft 0 kts 144°
2026-04-25 18:04 37.46507 126.42942 28 ft 6 kts 146°
2026-04-25 18:04 37.46447 126.42982 28 ft 12 kts 154°
2026-04-25 18:04 37.46347 126.43041 28 ft 16 kts 154°
2026-04-25 18:05 37.46240 126.43102 28 ft 16 kts 155°
2026-04-25 18:05 37.46140 126.43173 28 ft 14 kts 144°
2026-04-25 18:05 37.46055 126.43247 28 ft 12 kts 144°
2026-04-25 18:05 37.46017 126.43280 28 ft 6 kts 144°
2026-04-25 18:06 37.45976 126.43317 28 ft 8 kts 144°
2026-04-25 18:06 37.45941 126.43392 28 ft 11 kts 84°
2026-04-25 18:06 37.45987 126.43498 28 ft 18 kts 54°
2026-04-25 18:06 37.46071 126.43644 28 ft 20 kts 53°
2026-04-25 18:07 37.46152 126.43787 28 ft 21 kts 54°
2026-04-25 18:07 37.46238 126.43941 28 ft 21 kts 54°
2026-04-25 18:07 37.46322 126.44089 28 ft 20 kts 54°
2026-04-25 18:07 37.46408 126.44242 28 ft 21 kts 54°
2026-04-25 18:08 37.46493 126.44392 28 ft 20 kts 54°
2026-04-25 18:08 37.46540 126.44483 28 ft 11 kts 59°
2026-04-25 18:08 37.46582 126.44571 28 ft 11 kts 65°
2026-04-25 18:08 37.46540 126.44670 28 ft 15 kts 143°
2026-04-25 18:09 37.46433 126.44766 28 ft 21 kts 144°
2026-04-25 18:09 37.46310 126.44875 28 ft 21 kts 144°
2026-04-25 18:09 37.46188 126.44984 28 ft 22 kts 144°
2026-04-25 18:09 37.46145 126.45023 28 ft 22 kts 144°
2026-04-25 18:10 37.45937 126.45208 28 ft 21 kts 144°
2026-04-25 18:10 37.45821 126.45312 28 ft 20 kts 144°
2026-04-25 18:10 37.45707 126.45413 28 ft 19 kts 144°
2026-04-25 18:10 37.45598 126.45511 28 ft 19 kts 144°
2026-04-25 18:11 37.45490 126.45607 28 ft 18 kts 144°
2026-04-25 18:11 37.45393 126.45693 28 ft 14 kts 144°
2026-04-25 18:11 37.45314 126.45767 28 ft 14 kts 132°
2026-04-25 18:11 37.45328 126.45879 28 ft 14 kts 56°
2026-04-25 18:12 37.45386 126.45981 28 ft 14 kts 52°
2026-04-25 18:12 37.45470 126.46027 28 ft 14 kts 345°
2026-04-25 18:12 37.45558 126.45963 28 ft 17 kts 324°
2026-04-25 18:12 37.45712 126.45826 28 ft 52 kts 324°
2026-04-25 18:13 37.46220 126.45373 29 ft 124 kts 324°
2026-04-25 18:13 37.47085 126.44604 110 ft 172 kts 324°
2026-04-25 18:13 37.48071 126.43737 793 ft 173 kts 325°
2026-04-25 18:14 37.50054 126.42132 2183 ft 174 kts 325°
2026-04-25 18:14 37.51108 126.41264 2454 ft 186 kts 324°
2026-04-25 18:14 37.52222 126.40334 2694 ft 201 kts 324°
2026-04-25 18:14 37.53433 126.39313 2985 ft 215 kts 324°
2026-04-25 18:15 37.54724 126.38220 3220 ft 234 kts 324°
2026-04-25 18:15 37.56112 126.37047 3609 ft 247 kts 324°
2026-04-25 18:15 37.57431 126.35568 4017 ft 258 kts 301°
2026-04-25 18:15 37.57988 126.33462 4601 ft 260 kts 272°
2026-04-25 18:16 37.57993 126.31166 5275 ft 263 kts 268°
2026-04-25 18:16 37.57972 126.28862 5914 ft 267 kts 268°
2026-04-25 18:16 37.57949 126.24138 7134 ft 276 kts 265°
2026-04-25 18:17 37.57442 126.21819 7754 ft 276 kts 237°
2026-04-25 18:17 37.56138 126.20133 8430 ft 274 kts 210°
2026-04-25 18:17 37.54366 126.19221 9066 ft 276 kts 197°
2026-04-25 18:17 37.52523 126.18481 9614 ft 282 kts 197°
2026-04-25 18:18 37.50644 126.17713 10204 ft 286 kts 198°
2026-04-25 18:18 37.48738 126.16921 10585 ft 298 kts 198°
2026-04-25 18:18 37.46722 126.16072 10861 ft 312 kts 198°
2026-04-25 18:18 37.44600 126.15174 11129 ft 327 kts 198°
2026-04-25 18:19 37.42375 126.14423 11353 ft 340 kts 185°
2026-04-25 18:19 37.40027 126.14827 11651 ft 350 kts 158°
2026-04-25 18:19 37.38030 126.16563 12193 ft 353 kts 134°
2026-04-25 18:19 37.36508 126.19019 12770 ft 356 kts 126°
2026-04-25 18:20 37.35053 126.21530 13268 ft 360 kts 128°
2026-04-25 18:20 37.33567 126.24075 13771 ft 363 kts 122°
2026-04-25 18:20 37.32652 126.27018 14265 ft 368 kts 102°
2026-04-25 18:20 37.32475 126.30238 14786 ft 371 kts 91°
2026-04-25 18:21 37.32488 126.33499 15258 ft 375 kts 90°
2026-04-25 18:21 37.32503 126.36767 15724 ft 378 kts 90°
2026-04-25 18:21 37.32498 126.40086 16183 ft 381 kts 91°
2026-04-25 18:21 37.32476 126.43398 16617 ft 385 kts 91°
2026-04-25 18:22 37.32445 126.46781 17047 ft 388 kts 91°
2026-04-25 18:22 37.32433 126.47913 17189 ft 389 kts 91°
2026-04-25 18:22 37.32371 126.53560 17885 ft 394 kts 91°
2026-04-25 18:22 37.32332 126.57004 18301 ft 396 kts 91°
2026-04-25 18:23 37.32293 126.60490 18836 ft 395 kts 91°
2026-04-25 18:23 37.32254 126.63847 19650 ft 386 kts 91°
2026-04-25 18:23 37.32213 126.67215 20241 ft 384 kts 91°
2026-04-25 18:23 37.32172 126.70531 20634 ft 386 kts 91°
2026-04-25 18:24 37.32133 126.73904 21014 ft 389 kts 91°
2026-04-25 18:24 37.32096 126.77300 21415 ft 391 kts 91°
2026-04-25 18:24 37.32058 126.80720 21820 ft 394 kts 91°
2026-04-25 18:24 37.32017 126.84163 22200 ft 396 kts 91°
2026-04-25 18:25 37.31976 126.87637 22590 ft 398 kts 91°
2026-04-25 18:25 37.31932 126.91130 22963 ft 400 kts 91°
2026-04-25 18:25 37.31889 126.94586 23326 ft 403 kts 91°
2026-04-25 18:25 37.31913 126.98116 23679 ft 405 kts 85°
2026-04-25 18:26 37.32453 127.01603 24038 ft 408 kts 72°
2026-04-25 18:26 37.33551 127.04850 24384 ft 409 kts 62°
2026-04-25 18:26 37.34961 127.07970 24758 ft 411 kts 59°
2026-04-25 18:26 37.36417 127.11070 25078 ft 414 kts 59°
2026-04-25 18:27 37.37877 127.14189 25424 ft 416 kts 59°
2026-04-25 18:27 37.39334 127.17333 25734 ft 419 kts 59°
2026-04-25 18:27 37.40796 127.20509 26070 ft 421 kts 59°
2026-04-25 18:27 37.42262 127.23714 26397 ft 423 kts 59°
2026-04-25 18:28 37.43725 127.26921 26711 ft 425 kts 59°
2026-04-25 18:28 37.45188 127.30135 27012 ft 427 kts 59°
2026-04-25 18:28 37.46676 127.33407 27305 ft 430 kts 60°
2026-04-25 18:29 37.49043 127.40324 27886 ft 433 kts 73°
2026-04-25 18:29 37.49763 127.43991 28149 ft 436 kts 78°
2026-04-25 18:30 37.51530 127.55291 28955 ft 442 kts 78°
2026-04-25 18:30 37.51919 127.57774 29188 ft 441 kts 78°
2026-04-25 18:30 37.52721 127.62833 29680 ft 440 kts 78°
2026-04-25 18:30 37.53322 127.66614 29941 ft 442 kts 79°
2026-04-25 18:31 37.53921 127.70391 30169 ft 443 kts 79°
2026-04-25 18:31 37.54523 127.74202 30436 ft 444 kts 79°
2026-04-25 18:31 37.55130 127.78051 30709 ft 445 kts 79°
2026-04-25 18:31 37.55727 127.81834 30939 ft 446 kts 79°
2026-04-25 18:32 37.56937 127.89523 31019 ft 449 kts 79°
2026-04-25 18:32 37.58143 127.97221 31025 ft 449 kts 79°
2026-04-25 18:33 37.59349 128.04938 31025 ft 449 kts 79°
2026-04-25 18:33 37.60552 128.12692 31029 ft 450 kts 79°
2026-04-25 18:34 37.61742 128.20404 31032 ft 451 kts 79°
2026-04-25 18:34 37.62929 128.28130 31043 ft 450 kts 79°
2026-04-25 18:35 37.64120 128.35901 31051 ft 449 kts 79°
2026-04-25 18:35 37.65297 128.43614 31054 ft 449 kts 79°
2026-04-25 18:36 37.66467 128.51315 31057 ft 450 kts 79°
2026-04-25 18:36 37.67639 128.59082 31057 ft 451 kts 79°
2026-04-25 18:37 37.68789 128.66838 31045 ft 451 kts 82°
2026-04-25 18:37 37.68790 128.74658 31050 ft 449 kts 101°
2026-04-25 18:38 37.66862 128.82077 31030 ft 446 kts 119°
2026-04-25 18:38 37.63689 128.88826 31010 ft 446 kts 123°
2026-04-25 18:39 37.60469 128.95432 30992 ft 445 kts 123°
2026-04-25 18:39 37.57233 129.02130 30997 ft 445 kts 123°
2026-04-25 18:40 37.54029 129.08781 30994 ft 446 kts 123°
2026-04-25 18:40 37.50814 129.15456 30998 ft 446 kts 123°
2026-04-25 18:41 37.47605 129.22111 30995 ft 447 kts 123°
2026-04-25 18:41 37.44382 129.28767 30993 ft 447 kts 123°
2026-04-25 18:42 37.42228 129.33206 30995 ft 447 kts 124°
2026-04-25 18:42 37.37920 129.42065 30996 ft 448 kts 124°
2026-04-25 18:43 37.34673 129.48732 30990 ft 448 kts 124°
2026-04-25 18:43 37.31431 129.55379 30996 ft 448 kts 124°
2026-04-25 18:44 37.28182 129.62030 30995 ft 448 kts 124°
2026-04-25 18:44 37.24921 129.68704 30996 ft 448 kts 125°
2026-04-25 18:45 37.21670 129.75362 31000 ft 449 kts 125°
2026-04-25 18:45 37.18398 129.82021 30996 ft 450 kts 126°
2026-04-25 18:46 37.15133 129.88641 30997 ft 449 kts 126°
2026-04-25 18:46 37.11851 129.95293 30997 ft 449 kts 126°
2026-04-25 18:47 37.08557 130.01945 30989 ft 450 kts 126°
2026-04-25 18:47 37.05260 130.08594 30998 ft 450 kts 126°
2026-04-25 18:48 37.01967 130.15222 30996 ft 450 kts 126°
2026-04-25 18:48 36.98680 130.21828 31004 ft 450 kts 126°
2026-04-25 18:49 36.95367 130.28470 31004 ft 450 kts 126°
2026-04-25 18:49 36.92059 130.35092 31007 ft 450 kts 126°
2026-04-25 18:50 36.88740 130.41710 31008 ft 450 kts 126°
2026-04-25 18:50 36.85414 130.48294 31012 ft 450 kts 126°
2026-04-25 18:51 36.83184 130.52719 31013 ft 450 kts 126°
2026-04-25 18:51 36.78757 130.61522 31016 ft 451 kts 126°
2026-04-25 18:52 36.75449 130.68094 31015 ft 450 kts 127°
2026-04-25 18:52 36.72110 130.74704 31019 ft 450 kts 127°
2026-04-25 18:53 36.68774 130.81291 31017 ft 450 kts 127°
2026-04-25 18:53 36.65459 130.87822 31019 ft 449 kts 127°
2026-04-25 18:54 36.60445 130.97681 31021 ft 450 kts 127°
2026-04-25 18:55 36.57102 131.04234 31018 ft 449 kts 127°
2026-04-25 18:55 36.53750 131.10799 31025 ft 449 kts 127°
2026-04-25 18:56 36.50406 131.17335 31019 ft 450 kts 127°
2026-04-25 18:56 36.47041 131.23906 31019 ft 450 kts 127°
2026-04-25 18:57 36.43684 131.30440 31018 ft 450 kts 127°
2026-04-25 18:57 36.40311 131.36998 31015 ft 450 kts 127°
2026-04-25 18:58 36.36935 131.43556 31019 ft 450 kts 126°
2026-04-25 18:58 36.32026 131.53445 31020 ft 451 kts 126°
2026-04-25 18:59 36.25485 131.66638 31012 ft 451 kts 127°
2026-04-25 19:00 36.20555 131.76569 31023 ft 451 kts 127°
2026-04-25 19:01 36.15629 131.86429 31018 ft 452 kts 127°
2026-04-25 19:01 36.12313 131.93042 31016 ft 452 kts 127°
2026-04-25 19:02 36.07349 132.02914 31007 ft 452 kts 127°
2026-04-25 19:03 36.03456 132.10637 31020 ft 452 kts 127°
2026-04-25 19:03 35.99030 132.19398 31025 ft 452 kts 127°
2026-04-25 19:04 35.94016 132.29295 30996 ft 453 kts 127°
2026-04-25 19:05 35.87323 132.42429 31013 ft 454 kts 128°
2026-04-25 19:06 35.83944 132.49016 31031 ft 456 kts 128°
2026-04-25 19:06 35.78865 132.58968 31035 ft 457 kts 128°
2026-04-25 19:07 35.73804 132.68870 31040 ft 459 kts 129°
2026-04-25 19:08 35.68737 132.78860 31020 ft 459 kts 130°
2026-04-25 19:09 35.63077 132.89934 31028 ft 461 kts 130°
2026-04-25 19:10 35.56826 133.02132 31054 ft 462 kts 131°
2026-04-25 19:10 35.53036 133.08350 31058 ft 452 kts 140°
2026-04-25 19:11 35.48597 133.13692 31044 ft 442 kts 149°
2026-04-25 19:11 35.43780 133.18350 31059 ft 442 kts 152°
2026-04-25 19:12 35.38918 133.22972 31060 ft 442 kts 152°
2026-04-25 19:12 35.34067 133.27600 31058 ft 443 kts 153°
2026-04-25 19:13 35.29209 133.32240 31063 ft 442 kts 153°
2026-04-25 19:13 35.24339 133.36881 31057 ft 442 kts 153°
2026-04-25 19:14 35.19516 133.41475 31074 ft 444 kts 154°
2026-04-25 19:14 35.14629 133.46118 31063 ft 444 kts 154°
2026-04-25 19:15 35.09750 133.50755 31088 ft 445 kts 154°
2026-04-25 19:15 35.04851 133.55399 31085 ft 444 kts 154°
2026-04-25 19:16 34.99977 133.60013 31075 ft 443 kts 155°
2026-04-25 19:16 34.95084 133.64618 31097 ft 444 kts 155°
2026-04-25 19:17 34.90202 133.69244 31094 ft 444 kts 155°
2026-04-25 19:17 34.85322 133.73842 31098 ft 444 kts 155°
2026-04-25 19:18 34.80498 133.78377 30724 ft 433 kts 155°
2026-04-25 19:18 34.78111 133.80617 29648 ft 435 kts 155°
2026-04-25 19:18 34.75818 133.83133 28005 ft 467 kts 138°
2026-04-25 19:18 34.74181 133.86583 26301 ft 496 kts 114°
2026-04-25 19:19 34.73610 133.90707 25191 ft 497 kts 91°
2026-04-25 19:19 34.73986 133.94817 24631 ft 476 kts 82°
2026-04-25 19:19 34.74482 133.98671 24121 ft 456 kts 83°
2026-04-25 19:19 34.74620 133.99913 23924 ft 450 kts 84°
2026-04-25 19:20 34.75067 134.06050 22700 ft 429 kts 88°
2026-04-25 19:20 34.75188 134.09647 21860 ft 421 kts 90°
2026-04-25 19:20 34.75256 134.13167 21016 ft 414 kts 90°
2026-04-25 19:20 34.75296 134.16588 20186 ft 408 kts 91°
2026-04-25 19:21 34.75325 134.20007 19331 ft 402 kts 91°
2026-04-25 19:21 34.75371 134.26682 17632 ft 392 kts 91°
2026-04-25 19:21 34.75390 134.29936 16828 ft 386 kts 91°
2026-04-25 19:22 34.75410 134.33159 16055 ft 379 kts 90°
2026-04-25 19:22 34.75429 134.36322 15277 ft 372 kts 90°
2026-04-25 19:22 34.75462 134.42465 13775 ft 358 kts 90°
2026-04-25 19:23 34.75477 134.45476 13029 ft 352 kts 90°
2026-04-25 19:23 34.75501 134.51164 12075 ft 323 kts 91°
2026-04-25 19:23 34.75120 134.53793 11575 ft 310 kts 117°
2026-04-25 19:24 34.73798 134.55748 10994 ft 296 kts 149°
2026-04-25 19:24 34.71926 134.56528 10410 ft 285 kts 177°
2026-04-25 19:24 34.68163 134.57535 9017 ft 287 kts 140°
2026-04-25 19:25 34.66842 134.61824 7922 ft 280 kts 90°
2026-04-25 19:25 34.66900 134.64178 7224 ft 281 kts 91°
2026-04-25 19:25 34.66905 134.66538 6586 ft 278 kts 94°
2026-04-25 19:26 34.66831 134.68860 5996 ft 274 kts 96°
2026-04-25 19:26 34.66707 134.71146 5403 ft 269 kts 97°
2026-04-25 19:26 34.66562 134.73369 4826 ft 264 kts 97°
2026-04-25 19:26 34.66351 134.75566 4275 ft 258 kts 106°
2026-04-25 19:27 34.65718 134.77557 3684 ft 253 kts 121°
2026-04-25 19:27 34.65413 134.78177 3486 ft 252 kts 123°
2026-04-25 19:27 34.63846 134.81097 3011 ft 244 kts 123°
2026-04-25 19:27 34.62942 134.82771 2995 ft 229 kts 123°
2026-04-25 19:28 34.62103 134.84335 2982 ft 214 kts 123°
2026-04-25 19:28 34.61347 134.85808 2967 ft 199 kts 115°
2026-04-25 19:28 34.60917 134.87347 2970 ft 183 kts 104°
2026-04-25 19:28 34.60755 134.88853 3063 ft 179 kts 95°
2026-04-25 19:29 34.60770 134.90361 3032 ft 180 kts 88°
2026-04-25 19:29 34.60893 134.91870 3011 ft 178 kts 86°
2026-04-25 19:29 34.61032 134.93362 3006 ft 178 kts 86°
2026-04-25 19:29 34.61164 134.94864 3006 ft 180 kts 86°
2026-04-25 19:30 34.61288 134.96374 3011 ft 180 kts 86°
2026-04-25 19:30 34.61406 134.97884 3007 ft 179 kts 86°
2026-04-25 19:30 34.61519 134.99385 3006 ft 179 kts 87°
2026-04-25 19:30 34.61632 135.00894 3006 ft 179 kts 87°
2026-04-25 19:31 34.61743 135.02376 2976 ft 172 kts 88°
2026-04-25 19:31 34.61846 135.03738 2804 ft 156 kts 87°
2026-04-25 19:31 34.61943 135.05040 2588 ft 151 kts 87°
2026-04-25 19:31 34.62037 135.06306 2390 ft 150 kts 86°
2026-04-25 19:32 34.62131 135.07567 2190 ft 150 kts 86°
2026-04-25 19:32 34.62225 135.08818 1993 ft 150 kts 85°
2026-04-25 19:32 34.62322 135.10084 1792 ft 149 kts 85°
2026-04-25 19:32 34.62353 135.10501 1725 ft 149 kts 86°
2026-04-25 19:33 34.62513 135.12585 1395 ft 148 kts 85°
2026-04-25 19:33 34.62576 135.13414 1260 ft 148 kts 85°
2026-04-25 19:33 34.62703 135.15057 1002 ft 147 kts 84°
2026-04-25 19:33 34.62791 135.16295 799 ft 147 kts 85°
2026-04-25 19:34 34.62877 135.17526 601 ft 146 kts 83°
2026-04-25 19:34 34.62979 135.18749 403 ft 145 kts 84°
2026-04-25 19:34 34.63078 135.19968 210 ft 144 kts 83°
2026-04-25 19:34 34.63176 135.21159 32 ft 141 kts 83°
2026-04-25 19:35 34.63264 135.22232 8 ft 106 kts 85°
2026-04-25 19:35 34.63316 135.22910 8 ft 56 kts 84°
2026-04-25 19:35 34.63334 135.23149 8 ft 9 kts 73°
2026-04-25 19:35 34.63392 135.23192 8 ft 9 kts
2026-04-25 19:36 34.63431 135.23192 8 ft 6 kts 356°
2026-04-25 19:36 34.63475 135.23169 8 ft 8 kts 315°
2026-04-25 19:36 34.63492 135.23102 8 ft 6 kts 265°
2026-04-25 19:36 34.63492 135.23097 8 ft 0 kts 265°
2026-04-25 19:37 34.63491 135.23088 8 ft 3 kts 265°
2026-04-25 19:37 34.63488 135.23050 8 ft 5 kts 264°
2026-04-25 19:37 34.63485 135.23001 8 ft 6 kts 265°
2026-04-25 19:38 34.63502 135.22957 8 ft 6 kts 337°
2026-04-25 19:38 34.63551 135.22946 8 ft 5 kts 354°
2026-04-25 19:38 34.63589 135.22942 8 ft 5 kts 355°
2026-04-25 19:38 34.63610 135.22940 8 ft 1 kts 354°